Regional Weather Roundup
Issued by NWS

Home | Current Version | Previous Version | Text Only | Print | Product List | Glossary Off
Versions: 1 2 3 4 5 6 7 8 9 10 11 12 13 14 15 16 17 18 19 20 21 22 23 24 25 26 27 28 29 30 31 32 33 34 35 36 37 38 39 40 41 42 43 44 45 46 47 48 49 50

000
ASUS45 KSLC 191210
RWRUT

UTAH REGIONAL WEATHER ROUNDUP
NATIONAL WEATHER SERVICE SALT LAKE CITY UT
500 AM MST FRI DEC 19 2014

UTZ001>011-023>025-191300-

NORTHERN UTAH

CITY           SKY/WX    TMP DP  RH WIND       PRES   REMARKS
BRIGHAM CITY   CLOUDY    32  28  86 SE3       30.18F
HILL AFB       CLOUDY    32  24  71 SE13      30.17F WCI  23
LOGAN          CLOUDY    31  27  85 CALM      30.17F
OGDEN          CLOUDY    32  25  75 S8        30.17F WCI  25
PROVO AIRPORT  CLOUDY    27  21  80 E3        30.22S
SALT LAKE CITY PTCLDY    32  27  81 SE8       30.19R WCI  25
VERNAL         CLOUDY    27  23  85 E3        30.23S
WENDOVER       MOCLDY    23  19  86 CALM      30.17S
HEBER CITY     CLOUDY    23  21  93 SE5       30.22R WCI  17
WEST JORDAN    PTCLDY    30  30 100 S8        30.20R WCI  23

$$

UTZ012>022-026-027-191300-

SOUTHERN/CENTRAL UTAH

CITY           SKY/WX    TMP DP  RH WIND       PRES   REMARKS
BLANDING       CLEAR     24  22  92 CALM      30.27R
BRYCE CANYON   PTCLDY     9   5  84 W8        30.20S WCI  -3
CEDAR CITY     CLEAR     22  18  85 CALM      30.20S
DELTA          PTCLDY    22  21  95 E5        30.20F WCI  16
MILFORD        CLEAR     23  19  85 S7        30.19F WCI  15
MOAB/CYNLANDS  CLOUDY    32  31  96 CALM      30.20S
PRICE          CLEAR     20  15  81 CALM      30.18S
ST GEORGE      MOSUNNY   34  28  80 SE8       30.27S WCI  27
KANAB            N/A     28  28 100 N7        30.27R WCI  21

$$

REGIONAL REPORTS     COLORADO/ARIZONA

CITY           SKY/WX    TMP DP  RH WIND       PRES   REMARKS
CRAIG, CO      CLOUDY    24  18  77 S5        30.20S WCI  18
GRAND JUNCTION CLOUDY    31  28  89 E5        30.20F WCI  26
RIFLE          CLOUDY    30  25  81 CALM      30.21R
MONTROSE       CLOUDY    30  27  88 S3        30.22R
CORTEZ         CLEAR     19  16  88 NE8       30.20R WCI   9
PAGE, AZ       CLEAR     34  27  75 SW3       30.21S
GRAND CANYON   CLEAR     17  14  88 CALM      30.21S
KINGMAN        CLEAR     29  27  92 CALM      30.21S
FLAGSTAFF      PTCLDY    12   8  84 CALM      30.20R

$$

REGIONAL REPORTS    NEVADA/IDAHO/WYOMING

CITY           SKY/WX    TMP DP  RH WIND       PRES   REMARKS
LAS VEGAS, NV  PTCLDY    42  36  79 S10       30.18F
ELY            PTCLDY    17  14  88 S9        30.19S WCI   6
ELKO           CLOUDY    24  22  91 CALM      30.12F
POCATELLO, ID  CLOUDY    37  29  72 S13       30.12S WCI  29
BURLEY         MOCLDY    37  26  64 S13       30.09S WCI  29
EVANSTON, WY   CLOUDY    21  20  96 SW10      30.15S WCI  10
ROCK SPRINGS   PTCLDY    19  15  84 SW12      30.13S WCI   7
KEMMERER       CLOUDY    21  21 100 W9        30.13S WCI  11

$$



USA.gov is the U.S. government's official web portal to all federal, state and local government web resources and services.